Weather observations for the past three days for
Shelton, Shelton Sanderson Field
Imperial (Metric)
Date Time (pdt) Wind (mph) Vis. (mi.) Weather Sky Cond. Temperature (ºF) Relative Humidity Wind Chill (°F) Heat Index (°F) Pressure Precipitation (in)
Air Dwpt 6 hour altimeter (in) sea level (mb) 1 hr 3 hr 6 hr
Max. Min.
18 07:53 W 8 10.00 Overcast OVC006 55.9 53.1 90% 30.09 1018.8
18 06:53 SW 12 10.00 Overcast OVC006 55 52 90% 30.08 1018.6
18 05:53 SW 13 10.00 Overcast OVC006 55 52 90% 30.06 1018.0
18 04:53 W 15 10.00 Overcast OVC009 55.9 53.1 57.9 55.9 90% 30.05 1017.5
18 03:53 W 12 10.00 Mostly Cloudy BKN009 55.9 53.1 90% 30.04 1017.1
18 02:53 SW 12 10.00 Mostly Cloudy BKN009 55.9 53.1 90% 30.04 1017.2
18 01:53 SW 16 G 24 10.00 Overcast OVC007 57 54 90% 30.04 1017.2
18 00:53 SW 9 10.00 Overcast OVC009 57.9 55 90% 30.04 1017.2
17 23:53 W 12 G 22 10.00 Overcast OVC008 57.9 55 90% 30.04 1017.1
17 22:53 SW 12 G 22 10.00 Overcast OVC008 57.9 55 73 57.9 90% 30.03 1016.8
17 21:53 SW 17 G 26 10.00 Partly Cloudy SCT010 59 55 87% 30.02 1016.6
17 20:53 SW 21 G 28 10.00 Fair and Breezy CLR 60.1 55 84% 30.01 1016.3
17 19:53 W 16 G 26 10.00 Fair CLR 63 55.9 78% 30 1015.8
17 18:53 W 22 G 32 10.00 Fair and Breezy CLR 68 55.9 65% 30 1015.8
17 17:53 SW 15 G 25 10.00 Fair CLR 73 57.9 59% 29.99 1015.4
17 16:53 SW 17 G 28 10.00 Fair CLR 73 57.9 77 66 59% 29.99 1015.4
17 15:53 W 14 10.00 Fair CLR 77 59 54% 79 29.98 1015.1
17 14:53 SW 15 10.00 Fair CLR 75 57.9 55% 78 29.99 1015.4
17 13:53 W 14 G 23 10.00 Fair CLR 73 57 57% 29.99 1015.2
17 12:53 SW 18 G 25 10.00 Fair CLR 71.1 57 61% 29.98 1015.2
17 11:53 W 15 10.00 Fair CLR 70 57 64% 29.97 1014.8
17 10:53 W 15 G 22 10.00 Fair CLR 64.9 55.9 64.9 57 73% 29.99 1015.3
17 09:53 W 14 G 24 10.00 A Few Clouds FEW012 62.1 55.9 80% 30 1015.7
17 08:53 W 12 G 20 10.00 A Few Clouds FEW009 63 55.9 78% 29.98 1015.0
17 07:53 SW 10 10.00 Fair CLR 60.1 55 84% 29.96 1014.3
17 06:53 W 9 10.00 A Few Clouds FEW007 57.9 55 90% 29.95 1013.8
17 05:53 W 10 10.00 Partly Cloudy SCT007 57 54 90% 29.97 1014.5
17 04:53 W 13 10.00 A Few Clouds FEW007 57 54 66.9 57 90% 29.96 1014.4
17 03:53 W 13 10.00 Mostly Cloudy BKN006 57 54 90% 29.93 1013.3
17 02:53 SW 15 10.00 Fair CLR 57.9 54 87% 29.94 1013.5
17 01:53 W 13 G 21 10.00 Fair CLR 66 59 78% 29.93 1013.0
17 00:53 Calm 10.00 Fair CLR 62.1 57 84% 29.9 1012.3
16 23:53 W 7 10.00 Fair CLR 64.9 59 81% 29.9 1012.2
16 22:53 SW 3 10.00 Fair CLR 68 59 91.9 68 73% 29.89 1011.9
16 21:53 Calm 10.00 Fair CLR 70 59 68% 29.89 1011.8
16 20:53 E 3 10.00 Fair CLR 81 55.9 42% 81 29.87 1011.4
16 19:53 E 8 10.00 Fair CLR 84.9 55.9 37% 84 29.87 1011.2
16 18:53 SE 7 10.00 Fair CLR 89.1 57 34% 88 29.87 1011.1
16 17:53 E 7 10.00 Fair CLR 90 55.9 32% 88 29.88 1011.4
16 16:53 SE 5 10.00 Fair CLR 90 68 91 75.9 48% 94 29.89 1011.9
16 15:53 S 5 10.00 Fair CLR 91 55 30% 89 29.91 1012.5
16 14:53 Calm 10.00 Fair CLR 89.1 57 34% 88 29.93 1013.2
16 13:53 Vrbl 6 10.00 Fair CLR 86 57.9 39% 85 29.95 1013.9
16 12:53 E 8 10.00 Fair CLR 84 57.9 41% 83 29.96 1014.5
16 11:53 Calm 10.00 Fair CLR 79 57 47% 80 29.98 1015.1
16 10:53 SE 6 10.00 Fair CLR 77 57.9 77 50 52% 79 29.99 1015.3
16 09:53 Vrbl 6 10.00 Fair CLR 73.9 59 60% 30 1015.6
16 08:53 E 5 10.00 Fair CLR 69.1 57 66% 30.01 1015.9
16 07:53 Calm 10.00 Fair CLR 62.1 55 78% 30.01 1016.2
16 06:53 Calm 10.00 Fair CLR 53.1 51.1 93% 30.01 1016.1
16 05:53 Calm 10.00 Fair CLR 50 48.9 96% 30.02 1016.3
16 04:53 W 3 10.00 Fair CLR 50 48.9 62.1 50 96% 30.01 1016.0
16 03:53 W 5 10.00 Fair CLR 53.1 51.1 93% 30.01 1016.0
16 02:53 W 3 10.00 Fair CLR 53.1 52 96% 30.01 1016.1
16 01:53 W 5 10.00 Fair CLR 55.9 53.1 90% 30.01 1016.1
16 00:53 W 6 10.00 Fair CLR 57 54 90% 30.01 1016.3
15 23:53 W 6 10.00 Fair CLR 59 55 87% 30.02 1016.4
15 22:53 W 6 10.00 Fair CLR 62.1 57 80.1 62.1 84% 30.02 1016.5
15 21:53 W 8 10.00 Fair CLR 66 57.9 75% 30.02 1016.6
15 20:53 W 7 10.00 Fair CLR 70 57.9 66% 30.02 1016.4
15 19:53 SW 9 10.00 Fair CLR 75 59 58% 77 30.01 1016.1
15 18:53 SW 7 10.00 Fair CLR 79 59 50% 80 30.02 1016.3
15 17:53 W 8 10.00 Fair CLR 79 57.9 49% 80 30.03 1016.8
15 16:53 SW 8 10.00 Fair CLR 79 57 79 59 47% 80 30.05 1017.3
15 15:53 SW 7 10.00 Fair CLR 77 57 50% 79 30.07 1018.0
15 14:53 SW 8 10.00 Fair CLR 73 57 57% 30.09 1018.7
15 13:53 SW 9 10.00 Fair CLR 69.1 55.9 63% 30.1 1019.3
15 12:53 Vrbl 6 10.00 Partly Cloudy SCT015 64.9 55.9 73% 30.12 1019.9
15 11:53 Calm 10.00 Overcast OVC012 62.1 54 75% 30.13 1020.3
15 10:53 Vrbl 5 10.00 Overcast OVC010 59 53.1 59 53.1 81% 30.14 1020.6
15 09:53 W 6 10.00 Overcast OVC008 57 53.1 87% 30.14 1020.7
15 08:53 SW 6 10.00 Overcast OVC006 55.9 53.1 90% 30.14 1020.6
Date Time (pdt) Wind (mph) Vis. (mi.) Weather Sky Cond. Air Dwpt Max. Min. Relative Humidity Wind Chill (°F) Heat Index (°F) altimeter (in) sea level (mb) 1 hr 3 hr 6 hr
6 hour
Temperature (ºF) Pressure Precipitation (in)